AL3A Weather Reports


Display with metric or nautical units.
time (UTC)temp
F
wind
direction
speed
MPH
gust
MPH
rain 1hr
in
rain 24hr
in
rain mn
in
humidity
%
barometer
mb
20260902114515 52 0.0 0.0 0.00 0.02 0.01 96 1030.4
20260902113515 52 0.0 0.0 0.00 0.02 0.01 96 1029.9
20260902112515 52 0.0 1.0 0.00 0.02 0.01 95 1029.3
20260902111536 52 0.0 0.0 0.01 0.02 0.01 95 1029.0
20260902110537 52 0.0 1.0 0.01 0.02 0.01 95 1029.9
20260902105517 52 0.0 1.0 0.01 0.02 0.01 96 1029.3
20260902104517 51 0.0 0.0 0.01 0.02 0.01 95 1029.0
20260902103517 51 0.0 0.0 0.01 0.02 0.01 94 1029.0
20260902102537 52 0.0 0.0 0.01 0.02 0.01 96 1028.8
20260902101517 51 0.0 0.0 0.00 0.01 0.00 94 1028.8
20260902100537 51 0.0 0.0 0.00 0.01 0.00 95 1028.6
20260902095517 50 0.0 0.0 0.00 0.01 0.00 94 1029.1
20260902094517 50 0.0 1.0 0.00 0.01 0.00 94 1029.2
20260902093517 50 0.0 0.0 0.00 0.01 0.00 93 1029.2
20260902092517 50 0.0 0.0 0.00 0.01 0.00 94 1030.2
20260902091517 50 0.0 0.0 0.00 0.01 0.00 93 1030.2
20260902090517 50 0.0 0.0 0.00 0.01 0.00 94 1030.5
20260902085517 49 0.0 1.0 0.00 0.01 0.00 93 1030.7
20260902084517 49 0.0 0.0 0.00 0.01 0.00 93 1030.7
20260902083537 49 0.0 0.0 0.00 0.01 0.00 93 1030.8
20260902082517 49 0.0 0.0 0.00 0.01 0.00 93 1031.0
20260902081517 49 0.0 0.0 0.00 0.01 0.00 93 1031.1
20260902080517 49 0.0 0.0 0.00 0.01 0.00 93 1031.0
20260902075517 49 0.0 0.0 0.00 0.02 0.00 93 1030.7
20260902074537 50 0.0 0.0 0.00 0.02 0.00 93 1030.6
20260902073517 49 0.0 0.0 0.00 0.02 0.00 94 1030.6
20260902072517 49 0.0 0.0 0.00 0.02 0.00 92 1030.5
20260902071517 49 0.0 2.0 0.00 0.02 0.00 91 1030.5
20260902070613 49 0.0 0.0 0.00 0.02 0.00 92 1030.5
20260902065516 49 0.0 0.0 0.00 0.02 0.02 92 1030.6
20260902064515 50 0.0 0.0 0.00 0.02 0.02 90 1030.6
20260902063515 50 0.0 0.0 0.00 0.02 0.02 90 1030.6
20260902062536 50 0.0 0.0 0.00 0.02 0.02 90 1030.6
20260902061535 51 0.0 0.0 0.00 0.02 0.02 89 1030.6
20260902060515 51 0.0 0.0 0.00 0.02 0.02 88 1030.6
20260902055515 52 0.0 0.0 0.00 0.02 0.02 90 1031.1
20260902054515 52 0.0 0.0 0.00 0.02 0.02 89 1030.2
20260902053515 52 0.0 0.0 0.00 0.02 0.02 88 1030.7
20260902052516 52 0.0 0.0 0.00 0.02 0.02 88 1030.4
20260902051515 52 0.0 0.0 0.00 0.02 0.02 89 1030.6
20260902050536 52 0.0 0.0 0.00 0.02 0.02 88 1030.5
20260902045536 53 0.0 0.0 0.00 0.02 0.02 86 1030.6
20260902044515 54 0.0 0.0 0.00 0.02 0.02 85 1030.6
20260902043517 54 0.0 0.0 0.00 0.02 0.02 86 1030.5
20260902042517 53 0.0 0.0 0.00 0.02 0.02 86 1030.5
20260902041517 54 0.0 0.0 0.00 0.02 0.02 84 1029.9
20260902040537 55 0.0 0.0 0.00 0.02 0.02 82 1029.9
20260902035517 56 0.0 0.0 0.00 0.02 0.02 82 1030.3
20260902033517 57 0.0 0.0 0.00 0.02 0.02 80 1029.1
20260902032517 57 0.0 0.0 0.00 0.02 0.02 80 1029.0
20260902031517 58 0.0 0.0 0.00 0.02 0.02 79 1027.4
20260902030517 58 0.0 0.0 0.00 0.02 0.02 78 1027.1
20260902025538 59 0.0 0.0 0.00 0.02 0.02 77 1026.8
20260902024517 60 0.0 0.0 0.00 0.02 0.02 76 1025.7
20260902023517 61 0.0 0.0 0.00 0.02 0.02 72 1026.1
20260902022517 61 0.0 0.0 0.00 0.02 0.02 71 1025.9
20260902021517 62 0.0 0.0 0.00 0.02 0.02 70 1025.0
20260902020517 63 0.0 3.0 0.00 0.02 0.02 68 1025.5
20260902015517 64 0.0 1.0 0.00 0.02 0.02 65 1025.4
20260902014538 65 0.0 2.0 0.00 0.02 0.02 63 1025.0
20260902013537 65 0.0 1.0 0.00 0.02 0.02 63 1025.0
20260902012517 66 225 1.0 5.0 0.00 0.02 0.02 61 1025.1
20260902011517 66 0.0 3.0 0.00 0.02 0.02 62 1026.2
20260902010517 67 180 1.0 3.0 0.00 0.02 0.02 59 1026.1
20260902005517 68 180 1.0 4.0 0.00 0.02 0.02 61 1026.7
20260902004517 68 0.0 2.0 0.00 0.02 0.02 63 1026.3
20260902003517 69 0.0 4.0 0.00 0.02 0.02 62 1026.8
20260902002518 70 315 1.0 8.0 0.00 0.02 0.02 61 1026.8
20260902001517 69 135 1.0 4.0 0.00 0.02 0.02 62 1027.4
20260902000517 69 203 2.0 8.0 0.00 0.02 0.02 61 1027.4
20260901235517 71 248 2.0 5.0 0.00 0.02 0.02 57 1027.9
20260901234536 72 248 2.0 5.0 0.00 0.02 0.02 53 1027.4
20260901233517 72 248 3.0 9.0 0.00 0.02 0.02 52 1027.9
20260901232516 70 293 3.0 11.0 0.00 0.02 0.02 56 1027.7
20260901231517 69 225 3.0 9.0 0.00 0.02 0.02 57 1027.1
20260901230516 70 248 3.0 9.0 0.00 0.02 0.02 56 1027.5
20260901225516 70 293 2.0 6.0 0.00 0.02 0.02 53 1027.6
20260901224516 69 0 1.0 3.0 0.00 0.02 0.02 55 1028.4
20260901223517 69 225 2.0 5.0 0.00 0.02 0.02 53 1027.9
20260901222516 67 270 1.0 4.0 0.00 0.02 0.02 65 1028.4
20260901221516 66 270 2.0 6.0 0.00 0.02 0.02 60 1027.7
20260901220516 65 225 2.0 9.0 0.00 0.02 0.02 62 1027.9
20260901215516 65 248 5.0 12.0 0.00 0.02 0.02 62 1028.0
20260901214516 68 248 5.0 11.0 0.00 0.02 0.02 55 1029.0
20260901213517 69 225 4.0 13.0 0.00 0.02 0.02 47 1029.0
20260901212516 72 270 3.0 12.0 0.00 0.02 0.02 46 1029.9
20260901211516 74 248 7.0 15.0 0.00 0.02 0.02 47 1029.9
20260901210517 73 225 3.0 14.0 0.00 0.02 0.02 49 1030.0
20260901205516 73 248 3.0 10.0 0.00 0.02 0.02 46 1029.3
20260901204516 74 225 3.0 10.0 0.00 0.02 0.02 45 1030.1
20260901203536 74 248 5.0 14.0 0.00 0.02 0.02 42 1029.9
20260901202516 74 248 2.0 17.0 0.00 0.02 0.02 44 1030.0
20260901201516 73 248 5.0 12.0 0.00 0.02 0.02 44 1030.8
20260901200536 74 225 4.0 11.0 0.00 0.02 0.02 43 1030.9
20260901195516 73 270 6.0 12.0 0.00 0.02 0.02 44 1030.9
20260901194516 73 225 5.0 14.0 0.00 0.02 0.02 40 1030.3
20260901193536 72 293 4.0 15.0 0.00 0.02 0.02 44 1030.6
20260901192516 72 270 6.0 14.0 0.00 0.02 0.02 42 1030.7
20260901191516 71 248 2.0 9.0 0.00 0.02 0.02 44 1030.7
20260901190516 72 248 4.0 13.0 0.00 0.02 0.02 42 1031.1
20260901185516 72 270 6.0 13.0 0.00 0.02 0.02 45 1030.9
20260901184516 70 248 4.0 10.0 0.00 0.02 0.02 44 1030.8
20260901183516 70 225 4.0 15.0 0.00 0.02 0.02 47 1030.9
20260901182516 71 270 5.0 12.0 0.00 0.02 0.02 47 1031.3
20260901181536 71 270 4.0 11.0 0.00 0.02 0.02 50 1031.5
20260901180516 70 293 2.0 7.0 0.00 0.02 0.02 53 1031.6
20260901175536 69 293 3.0 8.0 0.00 0.02 0.02 56 1031.2
20260901174516 70 293 5.0 11.0 0.00 0.02 0.02 57 1031.8
20260901173516 70 225 2.0 8.0 0.00 0.02 0.02 52 1031.8
20260901172516 69 270 1.0 8.0 0.00 0.02 0.02 57 1032.0
20260901171516 69 248 3.0 8.0 0.00 0.02 0.02 54 1032.0
20260901170516 69 0.0 0.0 0.00 0.02 0.02 58 1032.0
20260901165536 68 0.0 0.0 0.00 0.02 0.02 57 1032.0
20260901164516 67 0.0 0.0 0.00 0.02 0.02 65 1032.1
20260901163536 66 0.0 1.0 0.00 0.02 0.02 65 1031.6
20260901162516 67 0.0 2.0 0.00 0.02 0.02 65 1032.0
20260901161516 67 0.0 0.0 0.00 0.02 0.02 66 1032.0
20260901160516 66 0.0 0.0 0.00 0.02 0.02 70 1032.0
20260901155516 65 0.0 2.0 0.00 0.02 0.02 74 1031.6
20260901154516 64 0.0 0.0 0.00 0.02 0.02 76 1032.3
20260901153516 63 0.0 0.0 0.00 0.02 0.02 79 1031.8
20260901152515 60 0.0 0.0 0.00 0.02 0.02 85 1031.3
20260901151516 58 0.0 0.0 0.00 0.02 0.02 88 1031.0
20260901150536 55 0.0 0.0 0.00 0.02 0.02 93 1030.6
20260901145515 53 0.0 0.0 0.00 0.02 0.02 94 1030.1
20260901144516 51 0.0 0.0 0.00 0.02 0.02 96 1030.0
20260901143535 49 0.0 0.0 0.00 0.02 0.02 96 1029.5
20260901142515 48 0.0 0.0 0.00 0.02 0.02 96 1028.9
20260901141516 47 0.0 0.0 0.00 0.02 0.02 97 1029.4
20260901140516 46 0.0 0.0 0.00 0.02 0.02 97 1028.9
20260901135555 44 0.0 0.0 0.01 0.02 0.02 96 1028.3
20260901134516 43 0.0 0.0 0.01 0.02 0.02 96 1028.1
20260901133515 42 0.0 0.0 0.01 0.02 0.02 96 1028.1
20260901132535 41 0.0 0.0 0.01 0.02 0.02 96 1027.6
20260901131535 41 0.0 0.0 0.01 0.02 0.02 95 1027.9
20260901130516 41 0.0 0.0 0.01 0.02 0.02 95 1027.8
20260901125515 42 0.0 0.0 0.00 0.01 0.01 95 1027.6
20260901124515 42 0.0 0.0 0.00 0.01 0.01 95 1028.5
20260901123515 42 0.0 0.0 0.00 0.01 0.01 96 1028.5
20260901122515 41 0.0 0.0 0.00 0.01 0.01 96 1028.4
20260901121535 41 0.0 0.0 0.00 0.01 0.01 95 1028.3
20260901120515 42 0.0 0.0 0.00 0.01 0.01 94 1028.1
20260901115515 43 0.0 0.0 0.00 0.01 0.01 96 1028.5